Tracking 20621 objects as of 1-Apr-2020
HD Live streaming from Space Station
objects crossing your sky now

COSMOS 1066

Track COSMOS 1066 now!
10-day predictions
COSMOS 1066 is classified as:


NORAD ID: 11165
Int'l Code: 1978-121A
Perigee: 824.6 km
Apogee: 897.3 km
Inclination: 81.2 °
Period: 102.0 minutes
Semi major axis: 7231 km
RCS: 4.6495 m2 (large)
Launch date: December 23, 1978
Source: Commonwealth of Independent States (former USSR) (CIS)
Launch site: PLESETSK MISSILE AND SPACE COMPLEX (PKMTR)
aabbcc
Your satellite tracking list
Your tracking list is empty




NASA's NSSDC Master Catalog

Two Line Element Set (TLE):
1 11165U 78121A   20092.01903831 -.00000030  00000-0 -23327-4 0  9997
2 11165  81.2361 311.6256 0050261  53.1164 307.4599 14.11621470641561
Source of the keplerian elements: AFSPC